Home > Weather > Gomel > Past weeks

Flag for Belarus Past Weather in Gomel, Belarus — Yesterday and Last 2 Weeks

Now
81 °F

Clear.


Feels Like: 85 °F
Forecast: 70 / 89 °F
Wind: 3 mph from Southeast

Location: Gomel'

Current Time: Jul 28, 2016 at 9:25:10 PM

Latest Report: Jul 28, 2016 at 8:30 PM


Visibility: 5 mi

Pressure: 29.95 "Hg

Humidity: 74%

Dew Point: 72 °F

Location of GomelLocation

Past Weather in Gomel — Graph

°F

Gomel Temperature Yesterday

Maximum temperature yesterday: 86 °F (at 12:00 PM)
Minimum temperature yesterday: 66 °F (at 4:00 AM)
Average temperature yesterday: 75 °F

High & Low Weather Summary for the Past Weeks

 TemperatureHumidityPressure
High91 °F (Jul 17, 4:00 PM)100% (Jul 19, 5:00 AM)30.12 "Hg (Jul 19, 5:00 AM)
Low52 °F (Jul 22, 5:00 AM)33% (Jul 14, 6:00 PM)29.65 "Hg (Jul 18, 8:00 PM)
Average71 °F71%29.91 "Hg
* Reported Jul 13 8:00 PM — Jul 28 8:00 PM, Gomel, Weather by CustomWeather, © 2016

Note: Actual official high and low records may vary slightly from our data, if they occured in-between our weather recording intervals... More about our weather records

Advertising

Gomel Weather History for the Previous 24 Hours

Scroll right to see more
 ConditionsComfort  
Time TempWeatherWind HumidityBarometerVisibility
8:00 PM
Thu, Jul 28
81 °FSunny.6 mph74%29.95 "Hg10 mi
7:30 PM82 °FSunny.8 mph66%29.95 "Hg10 mi
7:00 PM82 °FSunny.6 mph66%29.95 "Hg10 mi
6:30 PM81 °FBroken clouds.1 mph70%29.98 "HgN/A
6:00 PM81 °FBroken clouds.6 mph70%29.98 "HgN/A
5:30 PM81 °FBroken clouds.6 mph70%29.98 "HgN/A
5:00 PM81 °FBroken clouds.6 mph70%29.98 "HgN/A
4:30 PM79 °FPartly sunny.3 mph61%30.01 "HgN/A
4:00 PM79 °FBroken clouds.1 mph61%30.01 "HgN/A
3:30 PM81 °FThunderstorms. Partly sunny.8 mph66%30.01 "HgN/A
3:00 PM81 °FThunderstorms. Partly sunny.6 mph66%30.01 "HgN/A
2:30 PM86 °FThunderstorms. Broken clouds.8 mph66%30.01 "HgN/A
2:00 PM86 °FThunderstorms. Broken clouds.13 mph66%30.01 "HgN/A
1:30 PM84 °FThunderstorms. Scattered clouds.6 mph66%30.04 "HgN/A
1:00 PM84 °FSunny.3 mph66%30.04 "Hg10 mi
12:30 PM84 °FSunny.6 mph70%30.04 "Hg10 mi
12:00 PM84 °FSunny.6 mph70%30.04 "Hg10 mi
11:30 AM82 °FClear.6 mph74%30.04 "Hg5 mi
11:00 AM82 °FClear.3 mph74%30.04 "Hg5 mi
10:30 AM79 °FClear.3 mph79%30.04 "Hg5 mi
10:00 AM79 °FClear.3 mph79%30.04 "Hg5 mi
9:30 AM75 °FClear.3 mph78%30.04 "Hg5 mi
9:00 AM75 °FClear.3 mph78%30.04 "Hg4 mi
8:30 AM70 °FFog.1 mph83%30.07 "Hg3 mi
8:00 AM70 °FFog.1 mph83%30.07 "Hg3 mi
7:30 AM66 °FFog.1 mph94%30.07 "Hg2 mi
7:00 AM66 °FFog.1 mph94%30.07 "Hg2 mi
6:30 AM64 °FFog.1 mph94%30.07 "Hg2 mi
6:00 AM64 °FFog.1 mph94%30.07 "Hg2 mi
5:30 AM64 °FFog.1 mph94%30.07 "Hg1 mi
5:00 AM64 °FFog.3 mph94%30.07 "Hg0 mi
4:30 AM66 °FFog.3 mph94%30.07 "Hg0 mi
4:03 AM66 °FFog.1 mph94%30.04 "Hg0 mi
3:47 AM66 °FFog.1 mph94%30.04 "Hg0 mi
3:30 AM66 °FFog.1 mph94%30.04 "Hg1 mi
3:00 AM66 °FFog.1 mph94%30.04 "Hg1 mi
2:30 AM66 °FFog.1 mph94%30.04 "Hg1 mi
2:00 AM66 °FFog.1 mph94%30.04 "Hg1 mi
1:00 AM68 °FFog.1 mph88%30.04 "Hg1 mi
12:00 AM68 °FFog.1 mph88%30.04 "Hg2 mi
11:30 PM
Wed, Jul 27
70 °FFog.1 mph88%30.07 "Hg2 mi
11:00 PM70 °FFog.1 mph88%30.07 "Hg2 mi
10:30 PM72 °FFog.1 mph83%30.07 "Hg2 mi
10:00 PM72 °FFog.1 mph83%30.07 "Hg2 mi
9:30 PM72 °FFog.3 mph83%30.04 "Hg2 mi
9:00 PM72 °FFog.6 mph83%30.04 "Hg3 mi
Weather by CustomWeather, © 2016

See weather overviewHow to use our weather pages